CW0005 Weather Reports


Display with metric or nautical units.
time (UTC)temp
F
wind
direction
speed
MPH
gust
MPH
rain 1hr
in
rain 24hr
in
rain mn
in
humidity
%
barometer
mb
20260902160029 84 256 1.0 3.0 0.00 0.00 0.00 69 1014.5
20260902154521 83 269 1.0 4.0 0.00 0.00 0.00 69 1014.5
20260902153023 82 230 0.0 4.0 0.00 0.00 0.00 71 1014.5
20260902151503 81 246 0.0 6.0 0.00 0.00 0.00 72 1014.5
20260902150003 80 135 0.0 2.0 0.00 0.00 0.00 75 1014.6
20260902144502 79 135 0.0 3.0 0.00 0.00 0.00 75 1014.6
20260902143003 78 135 0.0 2.0 0.00 0.00 0.00 76 1014.7
20260902141502 77 135 0.0 0.0 0.00 0.00 0.00 77 1014.5
20260902140013 76 135 0.0 0.0 0.00 0.00 0.00 78 1014.7
20260902134508 76 135 0.0 0.0 0.00 0.00 0.00 79 1014.7
20260902133021 75 135 0.0 0.0 0.00 0.00 0.00 80 1014.9
20260902131522 74 135 0.0 1.0 0.00 0.00 0.00 80 1014.8
20260902130004 74 135 0.0 0.0 0.00 0.00 0.00 80 1014.9
20260902124515 74 135 0.0 0.0 0.00 0.00 0.00 80 1014.9
20260902123018 74 135 0.0 0.0 0.00 0.00 0.00 79 1014.8
20260902121515 75 135 0.0 0.0 0.00 0.00 0.00 79 1014.9
20260902120008 75 135 0.0 0.0 0.00 0.00 0.00 78 1015.0
20260902114511 75 135 0.0 0.0 0.00 0.00 0.00 77 1015.2
20260902113015 76 135 0.0 0.0 0.00 0.00 0.00 76 1014.9
20260902111519 76 135 1.0 3.0 0.00 0.00 0.00 75 1014.6
20260902110031 76 135 0.0 4.0 0.00 0.00 0.00 74 1014.9
20260902104543 77 135 1.0 4.0 0.00 0.00 0.00 72 1015.0
20260902103012 76 135 0.0 4.0 0.00 0.00 0.00 72 1015.2
20260902101514 76 135 0.0 5.0 0.00 0.00 0.00 73 1015.1
20260902100010 76 135 0.0 2.0 0.00 0.00 0.00 73 1015.0
20260902094530 75 135 0.0 5.0 0.00 0.00 0.00 75 1015.0
20260902093033 75 135 0.0 2.0 0.00 0.00 0.00 76 1013.8
20260902091517 75 135 0.0 0.0 0.00 0.00 0.00 76 1013.4
20260902090002 75 135 0.0 1.0 0.00 0.00 0.00 75 1013.5
20260902084502 76 135 0.0 0.0 0.00 0.00 0.00 75 1013.5
20260902083006 76 135 0.0 0.0 0.00 0.00 0.00 75 1013.4
20260902081504 76 135 0.0 0.0 0.00 0.00 0.00 75 1013.4
20260902080008 76 135 0.0 1.0 0.00 0.00 0.00 74 1013.4
20260902074505 76 135 0.0 0.0 0.00 0.00 0.00 74 1013.3
20260902073004 77 135 0.0 1.0 0.00 0.00 0.00 73 1013.4
20260902071504 77 135 0.0 0.0 0.00 0.00 0.00 73 1013.1
20260902070006 77 135 0.0 0.0 0.00 0.00 0.00 73 1012.9
20260902064507 77 135 0.0 0.0 0.00 0.00 0.00 73 1012.9
20260902063003 77 135 0.0 0.0 0.00 0.00 0.00 73 1012.9
20260902061505 77 135 0.0 2.0 0.00 0.00 0.00 73 1012.9
20260902060005 77 135 0.0 1.0 0.00 0.00 0.00 73 1013.0
20260902054513 78 135 0.0 3.0 0.00 0.00 0.00 73 1013.1
20260902053011 78 135 0.0 1.0 0.00 0.00 0.00 73 1013.2
20260902051509 78 135 0.0 0.0 0.00 0.00 0.00 73 1013.4
20260902050008 78 135 0.0 0.0 0.00 0.00 0.00 73 1013.3
20260902044533 79 135 0.0 0.0 0.00 0.00 0.00 72 1013.3
20260902043020 79 135 0.0 2.0 0.00 0.00 0.00 72 1013.3
20260902041524 80 135 0.0 0.0 0.00 0.00 0.00 71 1013.2
20260902040024 80 135 0.0 0.0 0.00 0.00 0.00 70 1013.5
20260902034510 80 135 0.0 0.0 0.00 0.00 0.00 70 1013.5
20260902033012 81 135 0.0 0.0 0.00 0.00 0.00 69 1013.4
20260902031517 81 135 0.0 0.0 0.00 0.00 0.00 69 1013.3
20260902030026 82 135 0.0 1.0 0.00 0.00 0.00 68 1013.1
20260902024527 82 135 0.0 1.0 0.00 0.00 0.00 68 1013.0
20260902023010 83 135 0.0 2.0 0.00 0.00 0.00 67 1013.0
20260902021521 83 135 0.0 1.0 0.00 0.00 0.00 66 1012.9
20260902020032 84 135 0.0 0.0 0.00 0.00 0.00 65 1012.8
20260902014540 85 135 0.0 2.0 0.00 0.00 0.00 64 1012.6
20260902013014 85 135 0.0 2.0 0.00 0.00 0.00 63 1012.4
20260902011511 86 135 0.0 1.0 0.00 0.00 0.00 62 1012.3
20260902010027 87 135 0.0 2.0 0.00 0.00 0.00 61 1012.3
20260902004531 88 135 0.0 1.0 0.00 0.00 0.00 60 1012.3
20260902003032 89 135 0.0 4.0 0.00 0.00 0.00 59 1012.2
20260902001527 90 135 0.0 1.0 0.00 0.00 0.00 58 1012.4
20260902000032 91 135 0.0 4.0 0.00 0.00 0.00 56 1012.4
20260901234536 92 135 0.0 0.0 0.00 0.00 0.00 54 1012.4
20260901233014 93 344 0.0 2.0 0.00 0.00 0.00 53 1012.4
20260901231533 94 319 0.0 5.0 0.00 0.00 0.00 50 1012.4
20260901230033 95 300 0.0 3.0 0.00 0.00 0.00 50 1012.4
20260901224518 96 332 1.0 3.0 0.00 0.00 0.00 47 1012.4
20260901223003 96 304 1.0 4.0 0.00 0.00 0.00 47 1012.7
20260901221505 96 169 1.0 5.0 0.00 0.00 0.00 46 1012.7
20260901220002 97 175 0.0 6.0 0.00 0.00 0.00 47 1012.7
20260901214503 97 47 0.0 4.0 0.00 0.00 0.00 51 1012.8
20260901213018 97 59 1.0 6.0 0.00 0.00 0.00 46 1013.0
20260901211502 97 26 1.0 9.0 0.00 0.00 0.00 49 1013.1
20260901210014 97 242 0.0 2.0 0.00 0.00 0.00 50 1013.2
20260901204510 96 338 0.0 4.0 0.00 0.00 0.00 47 1013.2
20260901203009 96 135 0.0 0.0 0.00 0.00 0.00 50 1013.2
20260901201516 96 135 0.0 6.0 0.00 0.00 0.00 51 1013.5
20260901200003 95 192 0.0 4.0 0.00 0.00 0.00 54 1013.6
20260901194509 95 135 0.0 2.0 0.00 0.00 0.00 50 1013.9
20260901193014 95 135 0.0 6.0 0.00 0.00 0.00 53 1013.9
20260901191522 95 135 0.0 5.0 0.00 0.00 0.00 52 1014.1
20260901190013 94 295 0.0 6.0 0.00 0.00 0.00 54 1014.3
20260901184512 94 314 0.0 3.0 0.00 0.00 0.00 54 1014.3
20260901183009 93 59 1.0 5.0 0.00 0.00 0.00 53 1014.5
20260901181519 92 45 0.0 0.0 0.00 0.00 0.00 54 1014.5
20260901180023 91 40 0.0 6.0 0.00 0.00 0.00 55 1014.7
20260901174529 90 337 2.0 8.0 0.00 0.00 0.00 55 1014.9
20260901173025 89 319 0.0 3.0 0.00 0.00 0.00 60 1015.0
20260901171511 88 260 1.0 5.0 0.00 0.00 0.00 60 1015.0
20260901170018 87 40 1.0 6.0 0.00 0.00 0.00 66 1015.1
20260901164513 86 348 0.0 3.0 0.00 0.00 0.00 65 1015.1
20260901163012 86 308 0.0 3.0 0.00 0.00 0.00 66 1015.1
20260901161537 84 314 1.0 3.0 0.00 0.00 0.00 69 1015.2